Leeming, United Kingdom

3:10 PM BST on September 20, 2017 (GMT +0100)
Leeming Air Base

Weather History for EGXE - May, 2013

Change the Weather History Date:

Tuesday, May 21, 2013

  Actual Average Record
Temperature  
Mean Temperature 50 °F -  
Max Temperature 53 °F 63 °F - ()
Min Temperature 48 °F 47 °F - ()
Degree Days  
Heating Degree Days 14    
Moisture  
Dew Point 46 °F    
Average Humidity 85    
Maximum Humidity 100    
Minimum Humidity 69    
Precipitation  
Precipitation 0.00 in 0.07 in - ()
Sea Level Pressure  
Sea Level Pressure 30.05 in    
Wind  
Wind Speed 7 mph ()    
Max Wind Speed 13 mph    
Max Gust Speed -    
Visibility 6.5 miles    
Events Rain    
T = Trace of Precipitation, MM = Missing Value Source: Averaged Metar Reports

Daily Weather History Graph

Daily Weather History Graph

Search for Another Location

Airport or City:

Trip Planner

Search our weather history database for the weather conditions in past years. The results will help you decide how hot, cold, wet, or windy it might be!

Date:

Astronomy

May. 21, 2013 Rise Set
Actual Time 4:52 AM BST 9:14 PM BST
Civil Twilight 4:04 AM BST 10:02 PM BST
Nautical Twilight 2:50 AM BST 11:17 PM BST
Astronomical Twilight 1:35 AM BST 12:30 AM BST
Moon 4:36 PM BST (5/21) 2:53 AM BST (5/21)
Length of Visible Light 17h 58m
Length of Day
16h 21m
Waxing Gibbous, 82% of the Moon is Illuminated
May 21
Waxing Gibbous
May 25
Full
May 31
Last Quarter
Jun 8
New
Jun 16
First Quarter

Hourly Weather History & Observations

Time (BST) Temp. Dew Point Humidity Pressure Visibility Wind Dir Wind Speed Gust Speed Precip Events Conditions
12:50 AM 49 °F 48 °F 95% 30.03 in 1 mi NNW 10.4 mph - - Rain Heavy Rain
12:50 AM 50.0 °F 48.2 °F 94% 30.01 in 1.4 mi NNW 10.4 mph - N/A Rain Heavy Rain
1:50 AM 50.0 °F 48.2 °F 94% 30.01 in 4.3 mi North 8.1 mph - N/A Rain Light Rain
2:50 AM 48.2 °F 48.2 °F 100% 30.01 in 3.1 mi North 8.1 mph - N/A Rain Light Rain
3:50 AM 49 °F 48 °F 96% 30.02 in 6 mi North 5.8 mph - - Rain Rain
3:50 AM 48.2 °F 48.2 °F 100% 30.01 in 6.2 mi North 5.8 mph - N/A   Scattered Clouds
4:50 AM 50.0 °F 48.2 °F 94% 30.01 in - North 8.1 mph - N/A   Mostly Cloudy
5:50 AM 48.2 °F 48.2 °F 100% 30.01 in 4.3 mi North 8.1 mph - N/A   Overcast
6:50 AM 49 °F 48 °F 95% 30.03 in 4 mi NNE 6.9 mph - - Rain Light Drizzle
6:50 AM 50.0 °F 48.2 °F 94% 30.01 in 3.7 mi NNE 6.9 mph - N/A   Light Drizzle
7:50 AM 50.0 °F 48.2 °F 94% 30.04 in 4.3 mi NNE 9.2 mph - N/A   Haze
8:50 AM 50.0 °F 48.2 °F 94% 30.04 in 6.2 mi North 9.2 mph - N/A   Light Drizzle
9:50 AM 51 °F 47 °F 81% 30.06 in 9 mi North 9.2 mph - - Rain Light Drizzle
9:50 AM 50.0 °F 46.4 °F 87% 30.04 in 6.2 mi North 9.2 mph - N/A   Overcast
10:50 AM 51.8 °F 46.4 °F 82% 30.06 in 6.2 mi NNE 9.2 mph - N/A   Overcast
11:50 AM 53.6 °F 46.4 °F 77% 30.06 in 6.2 mi NNE 8.1 mph - N/A   Overcast
12:50 PM 53 °F 46 °F 69% 30.07 in 12 mi NE 9.2 mph - -   Partly Cloudy
12:50 PM 51.8 °F 46.4 °F 82% 30.06 in 6.2 mi NE 9.2 mph - N/A   Overcast
1:50 PM 51.8 °F 46.4 °F 82% 30.06 in 6.2 mi NE 11.5 mph - N/A   Overcast
2:50 PM 51.8 °F 44.6 °F 76% 30.06 in 6.2 mi NE 12.7 mph - N/A   Overcast
3:50 PM 51 °F 44 °F 69% 30.07 in 16 mi NE 10.4 mph - -   Overcast
3:50 PM 51.8 °F 44.6 °F 76% 30.06 in 6.2 mi NE 10.4 mph - N/A   Overcast
4:50 PM 50.0 °F 42.8 °F 76% 30.06 in 6.2 mi NE 10.4 mph - N/A   Mostly Cloudy
5:50 PM 50.0 °F 42.8 °F 76% 30.06 in 6.2 mi NE 9.2 mph - N/A   Overcast
6:50 PM 49 °F 43 °F 71% 30.09 in 14 mi NNE 6.9 mph - -   Mostly Cloudy
6:50 PM 50.0 °F 42.8 °F 76% 30.06 in 6.2 mi NNE 6.9 mph - N/A   Scattered Clouds
7:50 PM 50.0 °F 42.8 °F 76% 30.06 in 6.2 mi NNE 3.5 mph - N/A   Mostly Cloudy
8:50 PM 48.2 °F 42.8 °F 82% 30.09 in 6.2 mi WNW 1.2 mph - N/A   Mostly Cloudy
9:50 PM 48 °F 44 °F 79% 30.10 in 14 mi WNW 2.3 mph - - Rain Rain
9:50 PM 48.2 °F 42.8 °F 82% 30.09 in 6.2 mi WNW 2.3 mph - N/A   Mostly Cloudy
10:50 PM 48.2 °F 42.8 °F 82% 30.09 in 6.2 mi West 2.3 mph - N/A   Mostly Cloudy
11:50 PM 48.2 °F 42.8 °F 82% 30.06 in 6.2 mi Calm Calm - N/A   Mostly Cloudy